This demonstration page uses our WeatherBlox Daily Observations layout. Learn more.

Left ArrowRight Arrow

Hourly Observations for May 12, 2021

Temp ( °F °C ) Dew Point ( °F °C ) Humidity (%) Winds ( mph kmh ) Pressure ( in mb ) Visibility ( mi km ) Precip ( " mm )
12:54 am 00:54 Clear 43 6.1 34 1.1 71 71 N 6 9 30.39 1029 10 16.0934 N/A
1:54 am 01:54 Clear 41 5 34 1.1 76 76 N 5 7 30.4 1029 10 16.0934 N/A
2:54 am 02:54 Clear 42 5.6 36 2.2 79 79 N 6 9 30.39 1029 10 16.0934 N/A
3:54 am 03:54 Clear 42 5.6 36 2.2 79 79 N 6 9 30.4 1029 10 16.0934 N/A
4:54 am 04:54 Clear 42 5.6 35 1.7 76 76 N N/A 30.4 1030 10 16.0934 N/A
5:54 am 05:54 Clear 38 3.3 33 0.6 83 83 N N/A 30.42 1030 10 16.0934 N/A
6:54 am 06:54 Sunny 40 4.4 34 1.1 79 79 N N/A 30.44 1031 10 16.0934 N/A
7:54 am 07:54 Sunny 49 9.4 39 3.9 69 69 N N/A 30.45 1031 10 16.0934 N/A
8:54 am 08:54 Sunny 55 12.8 35 1.7 47 47 SSE 12 19 30.45 1031 10 16.0934 N/A
9:54 am 09:54 Sunny 58 14.4 36 2.2 44 44 SSE 12 19 30.45 1031 10 16.0934 N/A
10:54 am 10:54 Partly Cloudy 60 15.6 36 2.2 41 41 SSE 9 15 30.45 1031 10 16.0934 N/A
11:54 am 11:54 Mostly Cloudy 59 15 34 1.1 39 39 S 7 11 30.45 1031 10 16.0934 N/A
12:54 pm 12:54 Partly Cloudy 63 17.2 35 1.7 35 35 S 8 13 30.43 1031 10 16.0934 N/A
1:54 pm 13:54 Partly Cloudy 64 17.8 33 0.6 32 32 SSE 9 15 30.41 1030 10 16.0934 N/A
2:54 pm 14:54 Sunny 64 17.8 32 undefined 30 30 N N/A 30.4 1029 10 16.0934 N/A
3:54 pm 15:54 Sunny 66 18.9 33 0.6 29 29 undefined N/A 30.37 1029 10 16.0934 N/A
4:54 pm 16:54 Sunny 65 18.3 31 -0.6 28 28 VRB 3 6 30.36 1028 10 16.0934 N/A
5:54 pm 17:54 Mostly Sunny 65 18.3 31 -0.6 28 28 undefined N/A 30.35 1028 10 16.0934 N/A
6:54 pm 18:54 Sunny 60 15.6 34 1.1 38 38 S 5 7 30.34 1028 10 16.0934 N/A
7:54 pm 19:54 Partly Cloudy 59 15 37 2.8 44 44 S 6 9 30.34 1027 10 16.0934 N/A
8:54 pm 20:54 Clear 57 13.9 33 0.6 41 41 SE 7 11 30.34 1028 10 16.0934 N/A
9:54 pm 21:54 Clear 56 13.3 33 0.6 42 42 S 5 7 30.36 1028 10 16.0934 N/A
10:54 pm 22:54 Clear 52 11.1 34 1.1 50 50 S 6 9 30.39 1029 10 16.0934 N/A
11:54 pm 23:54 Clear 51 10.6 34 1.1 52 52 SSE 5 7 30.38 1029 10 16.0934 N/A

Powered by AerisWeather